Location: The Saddle
(36.8333°N, 80.3417°W)
Time: 14:33:09
(UTC-04:00)

SR - Pass Details

Date: 27 May 2024
Orbit: 580 x 858 km, 66.7° (Epoch: 14 June)

Event Time Altitude Azimuth Distance (km) Brightness Sun altitude
Rises 02:37:46 0° 338° (NNW) 2,834 ? -28.9°
Reaches altitude 10° 02:40:06 10° 345° (NNW) 1,912 ? -28.7°
Enters shadow 02:43:36 42° 34° (NE) 839 ? -28.4°
